Needles, CA

4:24 PM PDT on June 20, 2018 (GMT -0700)
Needles

Weather History for KEED - October, 2017

Change the Weather History Date:

Monday, October 9, 2017

  Actual Average Record
Temperature  
Mean Temperature 74 °F 78 °F  
Max Temperature 82 °F 91 °F 104 °F (1996)
Min Temperature 66 °F 65 °F 44 °F (1949)
Degree Days  
Heating Degree Days 0    
Cooling Degree Days 9    
Growing Degree Days 24 (Base 50)    
Moisture  
Dew Point 17 °F    
Average Humidity 12    
Maximum Humidity 18    
Minimum Humidity 6    
Precipitation  
Precipitation 0.00 in 0.00 in 0.05 in (1943)
Month to date precipitation 0.00 0.07  
Year to date precipitation 2.57 3.52  
Sea Level Pressure  
Sea Level Pressure 29.91 in    
Wind  
Wind Speed 24 mph (North)    
Max Wind Speed 43 mph    
Max Gust Speed 55 mph    
Visibility 10 miles    
Events      
T = Trace of Precipitation, MM = Missing Value Source: NWS Daily Summary

Daily Weather History Graph

Daily Weather History Graph

Search for Another Location

Airport or City:

Astronomy

Oct. 09, 2017 Rise Set
Actual Time 6:39 AM PDT 6:11 PM PDT
Civil Twilight 6:14 AM PDT 6:36 PM PDT
Nautical Twilight 5:45 AM PDT 7:05 PM PDT
Astronomical Twilight 5:15 AM PDT 7:34 PM PDT
Moon 9:32 PM PDT (10/9) 10:47 AM PDT (10/9)
Length of Visible Light 12h 22m
Length of Day
11h 31m
Waning Gibbous, 80% of the Moon is Illuminated
Oct 9
Waning Gibbous
Oct 12
Last Quarter
Oct 19
New
Oct 27
First Quarter
Nov 3
Full

Hourly Weather History & Observations

Time (PDT) Temp. Dew Point Humidity Pressure Visibility Wind Dir Wind Speed Gust Speed Precip Events Conditions
12:56 AM 73.9 °F 19.9 °F 13% 29.75 in 9.0 mi North 35.7 mph 43.7 mph N/A   Overcast
1:56 AM 72.0 °F 19.9 °F 14% 29.81 in 10.0 mi NNE 29.9 mph 43.7 mph N/A   Overcast
2:56 AM 70.0 °F 19.0 °F 14% 29.83 in 10.0 mi NNE 32.2 mph 46.0 mph N/A   Overcast
3:27 AM 69.1 °F 21.0 °F 16% 29.93 in 10.0 mi NNE 26.5 mph 36.8 mph N/A   Scattered Clouds
3:56 AM 69.1 °F 23.0 °F 18% 29.85 in 10.0 mi NNE 21.9 mph 33.4 mph N/A   Clear
4:56 AM 68.0 °F 21.0 °F 17% 29.88 in 10.0 mi NNE 28.8 mph 38.0 mph N/A   Clear
5:56 AM 66.9 °F 21.0 °F 17% 29.91 in 10.0 mi North 27.6 mph 36.8 mph N/A   Clear
6:56 AM 66.0 °F 21.9 °F 19% 29.96 in 10.0 mi North 16.1 mph 27.6 mph N/A   Clear
8:56 AM 69.1 °F 25.0 °F 19% 29.97 in 10.0 mi NNE 31.1 mph 49.5 mph N/A   Clear
9:56 AM 72.0 °F 24.1 °F 17% 29.97 in 10.0 mi North 36.8 mph 43.7 mph N/A   Clear
10:56 AM 73.9 °F 23.0 °F 15% 29.98 in 10.0 mi North 33.4 mph 43.7 mph N/A   Clear
11:56 AM 77.0 °F 21.0 °F 12% 29.97 in 10.0 mi North 29.9 mph 42.6 mph N/A   Clear
12:56 PM 79.0 °F 19.9 °F 11% 29.95 in 10.0 mi NNE 29.9 mph 38.0 mph N/A   Clear
1:56 PM 80.1 °F 17.1 °F 9% 29.91 in 10.0 mi North 32.2 mph 41.4 mph N/A   Clear
2:56 PM 81.0 °F 15.1 °F 8% 29.89 in 10.0 mi North 32.2 mph 39.1 mph N/A   Clear
3:56 PM 82.0 °F 12.0 °F 7% 29.88 in 10.0 mi North 28.8 mph 36.8 mph N/A   Clear
4:56 PM 81.0 °F 8.1 °F 6% 29.88 in 10.0 mi North 24.2 mph 34.5 mph N/A   Clear
5:56 PM 79.0 °F 8.1 °F 7% 29.89 in 10.0 mi North 24.2 mph 32.2 mph N/A   Clear
6:56 PM 75.9 °F 9.0 °F 8% 29.91 in 10.0 mi North 18.4 mph - N/A   Clear
7:56 PM 75.0 °F 8.1 °F 8% 29.93 in 10.0 mi North 18.4 mph 25.3 mph N/A   Clear
8:56 PM 75.0 °F 8.1 °F 8% 29.94 in 10.0 mi North 18.4 mph 28.8 mph N/A   Clear
9:56 PM 73.9 °F 9.0 °F 8% 29.95 in 10.0 mi North 16.1 mph - N/A   Clear
10:56 PM 72.0 °F 12.9 °F 10% 29.95 in 10.0 mi North 12.7 mph 24.2 mph N/A   Clear
11:56 PM 70.0 °F 17.1 °F 13% 29.95 in 10.0 mi North 16.1 mph - N/A   Unknown